Flag for Germany Weather past 2 weeks in Varel, Lower Saxony, Germany

Now
55 °F

Scattered clouds.


Feels Like: 53 °F
Forecast: 46 / 67 °F
Wind: 10 mph from Northeast

Location: Wittmundhaven


UV Index: 0 (Low)

Visibility: N/A


Pressure: 30.15 "Hg

Humidity: 88%

Dew point: 52 °F

Location of VarelLocation

Historic Weather in Varel

°F

Varel temperature yesterday

Maximum temperature yesterday: 66 °F (at 2:20 PM)
Minimum temperature yesterday: 48 °F (at 4:20 AM)
Average temperature yesterday: 56 °F

Past Weeks' High & Low Weather Summary

 TemperatureHumidityPressure
High68 °F (Apr 20, 3:20 PM)100% (Apr 9, 8:45 PM)30.48 "Hg (Apr 9, 8:45 PM)
Low30 °F (Apr 16, 4:20 AM)33% (Apr 16, 3:20 PM)29.71 "Hg (Apr 21, 5:20 PM)
Average49 °F76%30.04 "Hg
* Reported Apr 8 9:20 PM — Apr 23 9:20 PM, Varel, Weather by CustomWeather, © 2014

Note: Actual official high and low records may vary slightly from our data, if they occured in-between our weather recording intervals... More about our weather records

Advertising

Historic Weather Conditions — Data for Previous 24 hours

 ConditionsComfort  
Time TempWeatherWind HumidityBarometerVisibility
9:20 PM
Apr 23
55 °FScattered clouds.10 mph88%30.15 "HgN/A
8:20 PM57 °FScattered clouds.12 mph88%30.12 "HgN/A
7:20 PM59 °FScattered clouds.6 mph88%30.12 "Hg6 mi
6:20 PM59 °FScattered clouds.10 mph82%30.12 "HgN/A
5:20 PM61 °FScattered clouds.9 mph83%30.12 "HgN/A
4:20 PM61 °FPassing clouds.10 mph77%30.12 "HgN/A
3:20 PM61 °FPassing clouds.10 mph77%30.12 "HgN/A
2:20 PM63 °FScattered clouds.9 mph68%30.12 "HgN/A
1:20 PM63 °FPartly sunny.8 mph68%30.12 "HgN/A
12:20 PM63 °FScattered clouds.6 mph64%30.12 "HgN/A
11:20 AM63 °FScattered clouds.6 mph59%30.12 "HgN/A
10:20 AM61 °FPassing clouds.5 mph72%30.12 "Hg5 mi
9:20 AM57 °FFog.5 mph82%30.09 "Hg2 mi
8:20 AM50 °FFog.2 mph100%30.09 "Hg1 mi
7:47 AM46 °FFog.3 mph100%30.09 "Hg1 mi
7:20 AM43 °FFog.3 mph100%30.09 "Hg0 mi
6:20 AM43 °FFog.1 mph100%30.07 "Hg0 mi
6:03 AM45 °FFog.2 mph93%30.07 "Hg0 mi
5:20 AM45 °FFog.1 mph93%30.07 "Hg1 mi
4:20 AM46 °FFog.1 mph93%30.07 "Hg1 mi
3:50 AM48 °FFog.1 mph94%30.04 "Hg2 mi
3:20 AM50 °FFog.1 mph94%30.04 "Hg3 mi
2:20 AM52 °FFog.2 mph88%30.04 "Hg3 mi
1:20 AM50 °FPassing clouds.2 mph94%30.04 "Hg4 mi
12:20 AM52 °FPassing clouds.2 mph94%30.01 "Hg4 mi
11:20 PM
Apr 22
55 °FPassing clouds.5 mph88%30.01 "HgN/A
10:20 PM55 °FPartly cloudy.3 mph94%29.98 "HgN/A
Weather by CustomWeather, © 2014

See weather overview